Other Public Products
Issued by NWS Charleston, SC

Current Version | Previous Version | Text Only | Print | Product List | Glossary Off
Versions: 1 2 3 4 5 6 7 8 9 10 11 12 13 14 15 16 17 18 19 20 21 22 23 24 25 26 27 28 29 30 31 32 33 34 35 36 37 38 39 40 41 42 43 44 45 46 47 48 49 50

000
FPUS82 KCHS 230227
OPUCHS

TEST...KCHS/KSAV Gateway Observations...TEST
National Weather Service Charleston SC
1000 PM EDT SAT JUL 22 2017

NOTE: "fair" indicates few or no clouds below 12,000 feet with no
significant weather and/or obstructions to visibility.

SCZ050-WAZ558-NCZ071-TXZ119-213-PAZ071-DCZ001-FLZ074-172-MI076-
NYZ176-178-MAZ016-IL014-TNZ027-NJZ106-GAZ044-MD014-230300-

...Gateway Observations for Charleston International...

CITY           SKY/WX    TMP DP  RH WIND       PRES   REMARKS
Chas Airport   CLEAR     81  74  79 S12       29.98R
Seattle        FAIR      79  58  48 N12       30.09S
Charlotte      MOCLDY    86  71  60 S8        29.93R HX  91
Dallas DFW     PTCLDY    94  70  45 SE13      29.84R HX 100
Dallas Love    PTCLDY    94  69  44 SE16      29.85R HX  99
Philladelphia  CLOUDY    82  70  66 SW13      29.76F
Wash National  CLOUDY    76  74  93 NE10      29.79R THUNDER
Baltimore      CLOUDY    74  73  97 W6        29.79S
Miami          CLOUDY    85  74  69 SE7       30.07R HX  92
Detroit        MOCLDY    77  71  82 NW6       29.79R
Newark         LGT RAIN  77  74  90 S6        29.77S
Laguardia      CLOUDY    79  75  87 S10       29.76F
J F K          LGT RAIN  77  75  93 S12       29.79S
Boston Logan   CLOUDY    75  65  70 S6        29.77S
Ft. Lauderdale CLOUDY    84  74  71 SE7       30.06R HX  91
Chicago O`Hare PTCLDY    79  69  71 E7        29.81R
Chicago Midway PTCLDY    80  69  69 NE6       29.80S
Houston Bush   MOCLDY    76  75  97 CALM      29.91S
Houston Hobby  MOCLDY    85  74  69 S9        29.91S HX  92
Nashville      PTCLDY    88  73  61 SW5       29.90S HX  95
Atlanta        MOCLDY    79  73  82 SW6       30.00R

$$

GAZ044-118-TXZ119-213-NCZ071-DCZ001-MDZ014-506-PAZ021-071-NJZ106-
NYZ176-178-MAZ106-OHZ011-021-055-MIZ076-KYZ091-ILZ014-INZ047-
MNZ060-ONZ431-230300-

...Gateway Observations for Savannah International...

CITY           SKY/WX    TMP DP  RH WIND       PRES   REMARKS
Savannah Arpt  CLEAR     82  72  71 SW6       29.98S
Atlanta        MOCLDY    79  73  82 SW6       30.00R
Charlotte      MOCLDY    86  71  60 S8        29.93R HX  91
Dallas DFW     PTCLDY    94  70  45 SE13      29.84R HX 100
Houston Bush   MOCLDY    76  75  97 CALM      29.91S
Wash National  CLOUDY    76  74  93 NE10      29.79R THUNDER
Wash Dulles    LGT RAIN  73  71  93 CALM      29.81R
Baltimore      CLOUDY    74  73  97 W6        29.79S
Philadelphia   CLOUDY    82  70  66 SW13      29.76F
Newark         LGT RAIN  77  74  90 S6        29.77S
Laguardia      CLOUDY    79  75  87 S10       29.76F
J F K          LGT RAIN  77  75  93 S12       29.79S
Boston         CLOUDY    75  65  70 S6        29.77S
Pittsburg      MOCLDY    73  73 100 S3        29.82S
Akron          NOT AVBL
Cleveland      MOCLDY    81  73  76 SW7       29.79S
Cincinnati     CLOUDY    77  77 100 SW8       29.86R THUNDER
Columbus       CLEAR     75  72  91 W5        29.82R
Detroit        MOCLDY    77  71  82 NW6       29.79R
Chicago O`Hare PTCLDY    79  69  71 E7        29.81R
Minneapolis    PTCLDY    83  60  45 NW15G24   29.83R
Indianapolis   CLOUDY    83  73  72 N6        29.82S
Toronto Canada LGT RAIN  70  64  83 CALM      29.82R

$$




USA.gov is the U.S. government's official web portal to all federal, state and local government web resources and services.